Louisville Bowman, KY

6:23 AM EDT on August 21, 2019 (GMT -0400)
Bowman

Weather History for KLOU - May, 2019

Change the Weather History Date:

Monday, May 6, 2019

  Actual Average Record
Temperature  
Mean Temperature 63 °F 63 °F  
Max Temperature 78 °F 73 °F 94 °F (1949)
Min Temperature 47 °F 53 °F 35 °F (1968)
Degree Days  
Heating Degree Days 2 4  
Month to date heating degree days 7 25  
Since 1 July heating degree days 4061 4216  
Cooling Degree Days 0 2  
Month to date cooling degree days 16 11  
Year to date cooling degree days 33 45  
Growing Degree Days 10 (Base 50)    
Moisture  
Dew Point 49 °F    
Average Humidity 66    
Maximum Humidity 93    
Minimum Humidity 38    
Precipitation  
Precipitation 0.00 in 0.18 in 1.84 in (1971)
Month to date precipitation 1.79 1.11  
Year to date precipitation 25.20 15.91  
Sea Level Pressure  
Sea Level Pressure 30.04 in    
Wind  
Wind Speed 3 mph (South)    
Max Wind Speed 10 mph    
Max Gust Speed 13 mph    
Visibility 10 miles    
Events      
T = Trace of Precipitation, MM = Missing Value Source: NWS Daily Summary

Daily Weather History Graph

Daily Weather History Graph

Search for Another Location

Airport or City:

Astronomy

May. 06, 2019 Rise Set
Actual Time 6:40 AM EDT 8:38 PM EDT
Civil Twilight 6:11 AM EDT 9:07 PM EDT
Nautical Twilight 5:36 AM EDT 9:42 PM EDT
Astronomical Twilight 4:59 AM EDT 10:20 PM EDT
Moon 8:02 AM EDT (5/6) 10:34 PM EDT (5/6)
Length of Visible Light 14h 55m
Length of Day
13h 57m
Waxing Crescent, 3% of the Moon is Illuminated
May 6
Waxing Crescent
May 11
First Quarter
May 18
Full
May 26
Last Quarter
Jun 3
New

Hourly Weather History & Observations

Time (EDT) Temp. Dew Point Humidity Pressure Visibility Wind Dir Wind Speed Gust Speed Precip Events Conditions
12:53 AM 53.1 °F 48.0 °F 83% 29.95 in 10.0 mi Calm Calm - N/A   Clear
1:53 AM 50.0 °F 48.0 °F 93% 29.96 in 10.0 mi Calm Calm - N/A   Clear
2:53 AM 50.0 °F 48.0 °F 93% 29.96 in 10.0 mi Calm Calm - N/A   Clear
3:53 AM 48.9 °F 46.9 °F 93% 29.98 in 10.0 mi Calm Calm - N/A   Clear
4:53 AM 48.9 °F 46.9 °F 93% 29.98 in 10.0 mi Calm Calm - N/A   Clear
5:53 AM 46.9 °F 45.0 °F 93% 30.01 in 10.0 mi Calm Calm - N/A   Clear
6:53 AM 48.0 °F 46.0 °F 93% 30.04 in 10.0 mi Calm Calm - N/A   Clear
7:53 AM 53.1 °F 48.9 °F 86% 30.05 in 10.0 mi Calm Calm - N/A   Clear
8:53 AM 57.9 °F 51.1 °F 78% 30.07 in 10.0 mi Calm Calm - N/A   Clear
9:53 AM 64.0 °F 50.0 °F 60% 30.07 in 10.0 mi South 4.6 mph - N/A   Clear
10:53 AM 68.0 °F 50.0 °F 52% 30.06 in 10.0 mi South 4.6 mph - N/A   Clear
11:53 AM 71.1 °F 48.0 °F 44% 30.08 in 10.0 mi Calm Calm - N/A   Clear
12:53 PM 73.0 °F 46.0 °F 38% 30.07 in 10.0 mi Variable 3.5 mph - N/A   Clear
1:53 PM 73.9 °F 48.0 °F 40% 30.07 in 10.0 mi SE 4.6 mph - N/A   Clear
2:53 PM 75.0 °F 48.0 °F 38% 30.05 in 10.0 mi SSW 5.8 mph - N/A   Clear
3:53 PM 75.9 °F 48.0 °F 37% 30.04 in 10.0 mi ESE 5.8 mph - N/A   Clear
4:53 PM 75.9 °F 48.9 °F 38% 30.03 in 10.0 mi South 5.8 mph - N/A   Clear
5:53 PM 75.9 °F 48.9 °F 38% 30.02 in 10.0 mi ESE 4.6 mph - N/A   Clear
6:53 PM 73.0 °F 50.0 °F 44% 30.04 in 10.0 mi South 4.6 mph - N/A   Clear
7:53 PM 73.0 °F 48.9 °F 42% 30.04 in 10.0 mi South 4.6 mph - N/A   Clear
8:53 PM 71.1 °F 51.1 °F 49% 30.05 in 10.0 mi South 4.6 mph - N/A   Clear
9:53 PM 69.1 °F 52.0 °F 54% 30.07 in 10.0 mi South 5.8 mph - N/A   Clear
10:53 PM 69.1 °F 52.0 °F 54% 30.08 in 10.0 mi South 4.6 mph - N/A   Clear
11:53 PM 66.0 °F 52.0 °F 60% 30.07 in 10.0 mi Calm Calm - N/A   Clear